Location: Elkol
(41.7238°N, 110.6124°W)
Time: 20:21:06
(UTC+00:00)

BlueWalker 3 - Pass Details

Date: 12 December 2022
Orbit: 499 x 517 km, 53.2° (Epoch: 04 February)

Event Time Altitude Azimuth Distance (km) Brightness Sun altitude
Rises 02:07:07 0° 297° (WNW) 2,620 6.4 -24.4°
Reaches altitude 10° 02:09:38 10° 283° (WNW) 1,726 5.5 -24.8°
Maximum altitude 02:12:45 23° 230° (SW) 1,111 4.2 -25.4°
Enters shadow 02:14:50 15° 188° (S) 1,416 4.4 -25.8°
